Location: Sweet Grass
(48.9965°N, 111.9649°W)
Time: 13:52:45
(UTC+00:00)

Envisat - Pass Details

Date: 05 December 2022
Orbit: 763 x 765 km, 98.2° (Epoch: 06 February)

Event Time Altitude Azimuth Distance (km) Brightness Sun altitude
Rises 13:04:42 0° 5° (N) 3,246 6.2 -18.9°
Reaches altitude 10° 13:07:21 10° 352° (N) 2,315 5.3 -18.5°
Enters shadow 13:09:33 20° 331° (NNW) 1,722 4.4 -18.1°
